Flag for Norway Weather past 2 weeks in Orkanger/Fannrem, Norway

Now
57 °F

Refreshingly cool.


Feels Like: 57 °F
Forecast: 40 / 48 °F
Wind: 3 mph from South

Location: Vinjeora Ii

Current Time: Oct 21, 2014 at 2:54:23 PM

Latest Report: Oct 21, 2014 at 2:00 PM


Visibility: N/A

Pressure: 29.29 "Hg

Humidity: 47%

Dew point: 37 °F

Location of Orkanger/FannremLocation

Historic Weather in Orkanger/Fannrem — Graph

°F

Orkanger/Fannrem temperature yesterday

Maximum temperature yesterday: 53 °F (at 4:00 PM)
Minimum temperature yesterday: 46 °F (at 10:00 PM)
Average temperature yesterday: 50 °F

Past Weeks' High & Low Weather Summary

 TemperatureHumidityPressure
High61 °F (Oct 6, 1:00 PM)93% (Oct 21, 5:00 AM)30.26 "Hg (Oct 21, 5:00 AM)
Low36 °F (Oct 15, 2:00 AM)38% (Oct 6, 2:00 PM)29.21 "Hg (Oct 19, 10:00 PM)
Average47 °F68%29.75 "Hg
* Reported Oct 6 1:00 PM — Oct 21 1:00 PM, Orkanger/Fannrem, Weather by CustomWeather, © 2014

Note: Actual official high and low records may vary slightly from our data, if they occured in-between our weather recording intervals... More about our weather records

Advertising

Orkanger/Fannrem weather history for previous 24 hours

 ConditionsComfort  
Time TempWeatherWind HumidityBarometerVisibility
1:00 PM
Oct 21
57 °FRefreshingly cool.6 mph47%29.29 "HgN/A
12:00 PM56 °FRefreshingly cool.2 mph49%29.29 "HgN/A
11:00 AM55 °FRefreshingly cool.3 mph53%29.32 "HgN/A
10:00 AM54 °FCool.5 mph64%29.32 "HgN/A
9:00 AM47 °FCool.1 mph82%29.35 "HgN/A
8:00 AM45 °FCool.1 mph92%29.35 "HgN/A
7:00 AM39 °FChilly.1 mph93%29.38 "HgN/A
6:00 AM38 °FChilly.1 mph93%29.41 "HgN/A
5:00 AM39 °FChilly.No wind93%29.44 "HgN/A
4:00 AM40 °FQuite cool.1 mph92%29.44 "HgN/A
3:00 AM42 °FQuite cool.1 mph92%29.47 "HgN/A
2:00 AM45 °FCool.1 mph92%29.47 "HgN/A
1:00 AM46 °FCool.No wind92%29.47 "HgN/A
12:00 AM47 °FCool.1 mph91%29.47 "HgN/A
11:00 PM
Oct 20
46 °FCool.1 mph92%29.47 "HgN/A
10:00 PM46 °FCool.1 mph91%29.47 "HgN/A
9:00 PM47 °FCool.1 mph90%29.47 "HgN/A
8:00 PM48 °FCool.1 mph89%29.47 "HgN/A
7:00 PM49 °FCool.1 mph87%29.44 "HgN/A
6:00 PM50 °FCool.1 mph82%29.44 "HgN/A
5:00 PM52 °FCool.1 mph74%29.41 "HgN/A
4:00 PM53 °FCool.2 mph71%29.38 "HgN/A
3:00 PM53 °FCool.1 mph69%29.38 "HgN/A
2:00 PM53 °FCool.No wind68%29.38 "HgN/A
Weather by CustomWeather, © 2014

See weather overviewHow to use our weather pages